Location: Hertford
(51.8000°N, 0.0667°W)
Time: 04:52:11
(UTC+00:00)

Cosmos 1048 Rocket - Pass Details

Date: 18 September 2020
Orbit: 743 x 792 km, 74.0° (Epoch: 20 October)

Event Time Altitude Azimuth Distance (km) Brightness Sun altitude
Rises 19:22:15 0° 336° (NNW) 3,253 7.9 -12.2°
Reaches altitude 10° 19:24:39 10° 339° (NNW) 2,330 7.1 -12.6°
Maximum altitude 19:29:55 64° 61° (ENE) 867 4.1 -13.4°
Enters shadow 19:34:10 16° 141° (SE) 1,954 5.6 -14.0°
